User: anonymous   Login
Location: Unspecified
(0.0000°N, 0.0000°E)
Time: 08:57:29
(UTC+00:00)
Language:

Orbcomm D8 (FM36) - Orbit

View from above orbital plane
View from above orbital plane
View from above satellite
View from above satellite

Ground track
Ground track

The orbit data is extracted from the following two-line orbital elements,

1 25984U 99065E   17204.85154159 -.00000050 +00000-0 +33318-4 0  9997
2 25984 045.0393 348.2896 0001570 306.3041 053.7660 14.32504721920483
Epoch (UTC): 23 July 2017 20:26:13
Eccentricity: 0.0001570
inclination: 45.0393°
perigee height: 782 km
apogee height: 784 km
right ascension of ascending node: 348.2896°
argument of perigee: 306.3041°
revolutions per day: 14.32504721
mean anomaly at epoch: 53.7660°
orbit number at epoch: 92048

The dashed part of the orbit path shows where the satellite is in the earth's shadow,  

DLR